DELTA 1 DEB, 7153

Orbit data source: Space-Track

DELTA 1 DEB, 7153 is space debris in SSO originally from a launch on Tue, 06 Nov 1973 UTC launched from the Air Force Western Test Range (AFWTR). Debris objects in space refer to the collection of defunct objects orbiting the Earth. Examples of debris include non-operational satellites, rocket bodies, and fragments generated from explosions, collisions, or faulty payload assembly.

Loading next visibility...
Identifier
7153, 1973-086DT
Orbit
SSO
Country
Flag of USUS
Related business
Manufacturer
Unknown
Mission
Spacecraft
Bus & Motor
Unknown
Mass
Unknown
Launch date (UTC)
1973-11-06 (52 years ago)
Launch vehicle
Unknown
Launch site
Air Force Western Test Range (AFWTR)
Object type
Payload
Rocket body
Debris
Shape & HBR
Unknown shape, 0.3 m
Radar Cross Section
Medium (>0.1 m² and <1 m²)

Expand to show TLE details & history
Last TLE update: 10 hours ago

TLE from 10 hours ago
0 DELTA 1 DEB
1 07153U 73086DT  25293.58567312  .00000079  00000-0  97377-3 0  9990
2 07153 102.1249 257.6468 0033113 223.3097 220.2765 12.35970028341135
Epoch: 2025-10-20T14:03Z
TLE epoch observation values (Epoch: 2025-10-20T14:03:22.157Z)
Latitude
76.25205°
Longitude
-43.38854°
Altitude
1,556.554 km
Speed
7.086 km/s
True Right ascension
13h 06m 57s
True Declination
76° 10' 50"
Sunlit
Object was in daylight at epoch
Visualization orbit readout
Latitude
Unknown
Longitude
Unknown
Altitude
Unknown
Speed
Unknown
Apparent Right ascension
Unknown
Apparent Declination
Unknown
Sunlit
N/A
Visualization observer readout
Local Sidereal Time
19:30:12
Azimuth
Unknown
Elevation
Unknown
Doppler factor
Unknown
Orbital elements
Apogee altitude
1,547.478 km
Perigee altitude
1,495.163 km
Semi-major axis
7,899.457 km
Eccentricity
0.00331
Inclination
102.1249°
RAAN
257.6468°
Arg. of periapsis
223.3097°
True anomaly
220.03197°
Mean anomaly
220.2765°
Eccentric anomaly
220.15416°
Mean motion
3.09134 °/min
Orbital period
116.45 mins
BSTAR
0.00097377
Loading maneuver chart data...
Computing Atmospheric mass density...
Loading historical data...
Loading historical data...
Loading historical data...
Loading historical data...
Loading historical data...
Loading historical data...
Loading historical data...

Documentation

Showing up to 5 results
|